Klawock, AK

3:42 PM AKDT on May 27, 2017 (GMT -0800)
Klawock

Weather History for PAKW - January, 2014

Change the Weather History Date:

Thursday, January 23, 2014

  Actual Average Record
Temperature  
Mean Temperature 44 °F -  
Max Temperature 48 °F 37 °F 50 °F (2012)
Min Temperature 37 °F 29 °F 14 °F (1999)
Degree Days  
Heating Degree Days 22    
Moisture  
Dew Point 43 °F    
Average Humidity 91    
Maximum Humidity 97    
Minimum Humidity 86    
Precipitation  
Precipitation 0.03 in - - ()
Sea Level Pressure  
Sea Level Pressure 30.44 in    
Wind  
Wind Speed 4 mph (NE)    
Max Wind Speed 9 mph    
Max Gust Speed -    
Visibility 10 miles    
Events Rain    
Averages and records for this station are not official NWS values.
T = Trace of Precipitation, MM = Missing Value Source: NWS Daily Summary

Daily Weather History Graph

Daily Weather History Graph

Search for Another Location

Airport or City:

Trip Planner

Search our weather history database for the weather conditions in past years. The results will help you decide how hot, cold, wet, or windy it might be!

Date:

Astronomy

Jan. 23, 2014 Rise Set
Actual Time 8:00 AM AKST 4:08 PM AKST
Civil Twilight 7:18 AM AKST 4:51 PM AKST
Nautical Twilight 6:32 AM AKST 5:36 PM AKST
Astronomical Twilight 5:48 AM AKST 6:20 PM AKST
Moon 12:05 AM AKST (1/23) 10:17 AM AKST (1/23)
Length of Visible Light 9h 33m
Length of Day
8h 08m
Waning Gibbous, 54% of the Moon is Illuminated
Jan 23
Waning Gibbous
Jan 23
Last Quarter
Jan 30
New
Feb 6
First Quarter
Feb 14
Full

Hourly Weather History & Observations

Time (AKST) Temp. Windchill Dew Point Humidity Pressure Visibility Wind Dir Wind Speed Gust Speed Precip Events Conditions
12:53 AM 46.9 °F - 45.0 °F 93% 30.40 in 10.0 mi Calm Calm - 0.00 in Rain Light Rain
1:53 AM 46.9 °F - 45.0 °F 93% 30.40 in 10.0 mi Variable 3.5 mph - 0.01 in   Overcast
3:53 AM 46.9 °F - 44.1 °F 90% 30.41 in 10.0 mi NE 6.9 mph - 0.02 in Rain Light Rain
4:53 AM 46.0 °F 44.8 °F 44.1 °F 93% 30.40 in 10.0 mi NE 3.5 mph - 0.00 in   Overcast
5:53 AM 46.0 °F 43.9 °F 44.1 °F 93% 30.42 in 10.0 mi NE 4.6 mph - 0.00 in   Overcast
6:53 AM 46.9 °F - 44.1 °F 90% 30.41 in 10.0 mi Variable 5.8 mph - N/A   Overcast
7:53 AM 46.9 °F - 44.1 °F 90% 30.43 in 10.0 mi NNE 4.6 mph - N/A   Overcast
8:53 AM 46.9 °F - 44.1 °F 90% 30.44 in 10.0 mi ENE 3.5 mph - N/A   Overcast
9:53 AM 46.9 °F - 44.1 °F 90% 30.45 in 10.0 mi Variable 6.9 mph - N/A   Overcast
10:53 AM 48.0 °F - 45.0 °F 89% 30.45 in 10.0 mi NNE 6.9 mph - N/A   Overcast
11:53 AM 48.0 °F - 45.0 °F 89% 30.45 in 10.0 mi NNE 9.2 mph - N/A   Overcast
12:53 PM 48.9 °F - 45.0 °F 86% 30.45 in 10.0 mi NNE 6.9 mph - N/A   Overcast
1:53 PM 48.9 °F - 46.0 °F 90% 30.45 in 10.0 mi NNE 4.6 mph - N/A   Overcast
2:53 PM 48.0 °F - 45.0 °F 89% 30.44 in 10.0 mi NNE 8.1 mph - N/A   Mostly Cloudy
3:53 PM 46.9 °F - 44.1 °F 90% 30.44 in 10.0 mi NNE 9.2 mph - N/A   Clear
4:53 PM 45.0 °F 43.5 °F 43.0 °F 93% 30.45 in 10.0 mi ENE 3.5 mph - N/A   Clear
5:53 PM 44.1 °F 39.5 °F 42.1 °F 93% 30.44 in 10.0 mi NNE 8.1 mph - N/A   Clear
7:53 PM 43.0 °F - 41.0 °F 93% 30.46 in 10.0 mi Calm Calm - N/A   Clear
8:53 PM 43.0 °F 41.3 °F 41.0 °F 93% 30.45 in 10.0 mi Variable 3.5 mph - N/A   Clear
9:53 PM 39.0 °F - 37.9 °F 96% 30.45 in 10.0 mi Calm Calm - N/A   Clear
10:53 PM 39.0 °F - 37.0 °F 93% 30.45 in 10.0 mi Calm Calm - N/A   Clear
11:53 PM 37.9 °F - 37.0 °F 97% 30.45 in 10.0 mi Calm Calm - N/A   Clear